Hill AFB, UT

9:57 AM MST on December 06, 2016 (GMT -0700)
Hill Air Force Base

Weather History for KHIF - May, 2014

Change the Weather History Date:

Thursday, May 8, 2014

  Actual Average Record
Temperature  
Mean Temperature 50 °F -  
Max Temperature 58 °F 63 °F 77 °F (2004)
Min Temperature 40 °F 43 °F 28 °F (2002)
Degree Days  
Heating Degree Days 16    
Moisture  
Dew Point 38 °F    
Average Humidity 81    
Maximum Humidity 100    
Minimum Humidity 30    
Precipitation  
Precipitation 0.01 in - - ()
Sea Level Pressure  
Sea Level Pressure 29.91 in    
Wind  
Wind Speed 6 mph (South)    
Max Wind Speed 13 mph    
Max Gust Speed 21 mph    
Visibility 10 miles    
Events Rain    
Averages and records for this station are not official NWS values.
T = Trace of Precipitation, MM = Missing Value Source: NWS Daily Summary

Daily Weather History Graph

Daily Weather History Graph

Search for Another Location

Airport or City:

Trip Planner

Search our weather history database for the weather conditions in past years. The results will help you decide how hot, cold, wet, or windy it might be!

Date:

Astronomy

May. 08, 2014 Rise Set
Actual Time 6:17 AM MDT 8:32 PM MDT
Civil Twilight 5:46 AM MDT 9:03 PM MDT
Nautical Twilight 5:08 AM MDT 9:40 PM MDT
Astronomical Twilight 4:27 AM MDT 10:22 PM MDT
Moon 2:33 PM MDT (5/8) 2:53 AM MDT (5/8)
Length of Visible Light 15h 16m
Length of Day
14h 15m
Waxing Gibbous, 65% of the Moon is Illuminated
May 8
Waxing Gibbous
May 14
Full
May 21
Last Quarter
May 28
New
Jun 5
First Quarter

Hourly Weather History & Observations

Time (MDT) Temp. Windchill Dew Point Humidity Pressure Visibility Wind Dir Wind Speed Gust Speed Precip Events Conditions
12:18 AM 42.8 °F 40.1 °F 41.0 °F 93% 29.89 in 10.0 mi South 4.6 mph - N/A   Overcast
12:38 AM 42.8 °F 40.1 °F 42.8 °F 100% 29.89 in 10.0 mi SSE 4.6 mph - N/A   Overcast
12:58 AM 42.4 °F 40.7 °F 42.1 °F 99% 29.87 in 10.0 mi SSE 3.5 mph - N/A   Overcast
1:38 AM 42.8 °F 41.1 °F 41.0 °F 93% 29.90 in 10.0 mi SSE 3.5 mph - N/A   Overcast
1:46 AM 42.8 °F 39.3 °F 41.0 °F 93% 29.91 in 10.0 mi SE 5.8 mph - N/A   Overcast
1:58 AM 43.0 °F 39.5 °F 41.5 °F 95% 29.88 in 10.0 mi SE 5.8 mph - 0.00 in   Overcast
2:19 AM 42.8 °F 37.5 °F 42.8 °F 100% 29.90 in 10.0 mi SSE 9.2 mph - N/A   Overcast
2:44 AM 41.0 °F 34.7 °F 41.0 °F 100% 29.90 in 10.0 mi SSE 10.4 mph - N/A   Overcast
2:58 AM 41.7 °F 36.1 °F 41.5 °F 99% 29.88 in 10.0 mi South 9.2 mph - 0.00 in   Overcast
3:39 AM 41.0 °F 35.2 °F 41.0 °F 100% 29.91 in 10.0 mi South 9.2 mph - N/A   Overcast
3:58 AM 41.0 °F 35.8 °F 40.6 °F 99% 29.88 in 10.0 mi South 8.1 mph - 0.00 in   Overcast
3:59 AM 41.0 °F 35.8 °F 41.0 °F 100% 29.91 in 10.0 mi South 8.1 mph - N/A   Overcast
4:24 AM 41.0 °F 35.2 °F 41.0 °F 100% 29.91 in 10.0 mi South 9.2 mph - N/A   Overcast
4:28 AM 41.0 °F 34.7 °F 41.0 °F 100% 29.91 in 10.0 mi South 10.4 mph - N/A   Overcast
4:38 AM 41.0 °F 35.8 °F 41.0 °F 100% 29.91 in 10.0 mi South 8.1 mph - N/A   Overcast
4:42 AM 41.0 °F 36.4 °F 41.0 °F 100% 29.91 in 10.0 mi South 6.9 mph - N/A   Overcast
4:58 AM 40.8 °F 36.2 °F 40.6 °F 99% 29.88 in 10.0 mi South 6.9 mph - 0.00 in   Overcast
5:07 AM 41.0 °F 36.4 °F 41.0 °F 100% 29.92 in 10.0 mi South 6.9 mph - N/A   Overcast
5:17 AM 41.0 °F 35.8 °F 41.0 °F 100% 29.92 in 10.0 mi SSE 8.1 mph - N/A   Overcast
5:40 AM 41.0 °F 39.0 °F 41.0 °F 100% 29.93 in 10.0 mi SE 3.5 mph - N/A   Overcast
5:53 AM 41.0 °F 39.0 °F 41.0 °F 100% 29.93 in 10.0 mi Variable 3.5 mph - N/A   Overcast
5:58 AM 40.6 °F - 40.5 °F 99% 29.90 in 10.0 mi SE 2.3 mph - 0.00 in   Overcast
6:16 AM 41.0 °F 37.1 °F 41.0 °F 100% 29.93 in 7.0 mi SE 5.8 mph - N/A   Overcast
6:51 AM 41.0 °F - 41.0 °F 100% 29.94 in 10.0 mi SE 2.3 mph - N/A   Overcast
6:58 AM 40.5 °F - 40.3 °F 99% 29.91 in 10.0 mi South 2.3 mph - 0.01 in   Overcast
7:30 AM 41.0 °F - 41.0 °F 100% 29.95 in 10.0 mi SE 2.3 mph - N/A Rain Light Rain
7:42 AM 42.8 °F - 41.0 °F 93% 29.95 in 10.0 mi SSE 2.3 mph - N/A   Mostly Cloudy
7:52 AM 42.8 °F 40.1 °F 41.0 °F 93% 29.95 in 10.0 mi South 4.6 mph - N/A   Mostly Cloudy
7:58 AM 42.3 °F 39.4 °F 41.4 °F 97% 29.92 in 10.0 mi South 4.6 mph - 0.00 in   Mostly Cloudy
8:43 AM 42.8 °F 39.3 °F 41.0 °F 93% 29.97 in 10.0 mi South 5.8 mph - N/A   Mostly Cloudy
8:58 AM 43.7 °F 39.1 °F 41.4 °F 91% 29.93 in 10.0 mi SSW 8.1 mph - N/A   Mostly Cloudy
9:18 AM 42.8 °F 37.5 °F 42.8 °F 100% 29.98 in 10.0 mi SSW 9.2 mph - N/A   Mostly Cloudy
9:58 AM 45.1 °F 40.8 °F 42.6 °F 91% 29.95 in 10.0 mi South 8.1 mph - N/A   Overcast
10:58 AM 47.5 °F - 41.0 °F 78% 29.95 in 10.0 mi South 8.1 mph - N/A   Mostly Cloudy
11:58 AM 49.6 °F - 39.0 °F 67% 29.95 in 10.0 mi SSW 9.2 mph - N/A   Mostly Cloudy
12:58 PM 51.6 °F - 38.7 °F 61% 29.94 in 10.0 mi SW 9.2 mph - N/A   Mostly Cloudy
1:18 PM 53.6 °F - 35.6 °F 51% 30.00 in 10.0 mi SW 8.1 mph - N/A   Scattered Clouds
1:58 PM 53.8 °F - 36.1 °F 51% 29.93 in 10.0 mi SW 12.7 mph 20.7 mph N/A   Scattered Clouds
2:58 PM 55.8 °F - 31.1 °F 39% 29.93 in 10.0 mi West 11.5 mph 18.4 mph N/A   Partly Cloudy
3:58 PM 56.1 °F - 25.0 °F 30% 29.92 in 10.0 mi WSW 8.1 mph - N/A   Scattered Clouds
4:58 PM 57.9 °F - 27.9 °F 32% 29.89 in 10.0 mi SSW 4.6 mph - N/A   Partly Cloudy
5:32 PM 59.0 °F - 28.4 °F 31% 29.96 in 10.0 mi SW 10.4 mph - N/A   Partly Cloudy
5:58 PM 58.3 °F - 28.9 °F 33% 29.89 in 10.0 mi SW 9.2 mph - N/A   Clear
6:58 PM 57.6 °F - 28.2 °F 33% 29.88 in 10.0 mi SW 5.8 mph - N/A   Scattered Clouds
7:58 PM 55.8 °F - 29.5 °F 37% 29.88 in 10.0 mi South 8.1 mph - N/A   Clear
8:58 PM 50.2 °F - 33.3 °F 52% 29.87 in 10.0 mi SSE 9.2 mph - N/A   Clear
9:58 PM 47.8 °F - 32.7 °F 56% 29.88 in 10.0 mi SSE 8.1 mph - N/A   Clear
10:58 PM 48.7 °F - 33.3 °F 55% 29.87 in 10.0 mi SE 9.2 mph - N/A   Clear
11:58 PM 51.4 °F - 32.0 °F 47% 29.84 in 10.0 mi South 12.7 mph - N/A   Partly Cloudy